EW9044 Weather Reports


time (UTC)temp
C
wind
direction
speed
KPH
gust
KPH
rain 1hr
cm
rain 24hr
cm
rain mn
cm
humidity
%
barometer
mb
20260507160101 10 0.0 0.0 0.00 0.00 0.00 41 1010.8
20260507154536 10 0.0 0.0 0.00 0.00 0.00 40 1010.7
20260507153031 9 0.0 0.0 0.00 0.00 0.00 42 1010.8
20260507151529 8 0.0 0.0 0.00 0.00 0.00 41 1010.9
20260507150031 8 0.0 0.0 0.00 0.00 0.00 44 1010.8
20260507144522 7 0.0 0.0 0.00 0.00 0.00 48 1011.0
20260507143019 7 0.0 0.0 0.00 0.00 0.00 51 1011.1
20260507141515 6 0.0 0.0 0.00 0.00 0.00 50 1011.2
20260507140026 6 0.0 0.0 0.00 0.00 0.00 61 1011.2
20260507134510 5 0.0 0.0 0.00 0.00 0.00 66 1011.2
20260507133008 3 0.0 0.0 0.00 0.00 0.00 69 1011.3
20260507131507 2 0.0 0.0 0.00 0.00 0.00 74 1011.4
20260507130006 1 0.0 0.0 0.00 0.00 0.00 79 1011.4
20260507124505 1 0.0 0.0 0.00 0.00 0.00 83 1011.6
20260507123005 0 0.0 0.0 0.00 0.00 0.00 81 1011.6
20260507121504 0 0.0 0.0 0.00 0.00 0.00 81 1011.7
20260507120003 0 0.0 0.0 0.00 0.00 0.00 81 1011.7
20260507114502 0 0.0 0.0 0.00 0.00 0.00 81 1011.6
20260507113001 0 0.0 0.0 0.00 0.00 0.00 79 1011.6
20260507111602 0 0.0 0.0 0.00 0.00 0.00 79 1011.5
20260507110106 0 0.0 0.0 0.00 0.00 0.00 78 1011.5
20260507104611 0 0.0 0.0 0.00 0.00 0.00 77 1011.6
20260507103058 0 0.0 0.0 0.00 0.00 0.00 77 1011.5
20260507101558 0 0.0 0.0 0.00 0.00 0.00 77 1011.6
20260507100059 0 0.0 0.0 0.00 0.00 0.00 77 1011.5
20260507094604 0 0.0 0.0 0.00 0.00 0.00 77 1011.5
20260507093051 1 0.0 0.0 0.00 0.00 0.00 77 1011.6
20260507091551 1 0.0 0.0 0.00 0.00 0.00 78 1011.7
20260507090048 1 0.0 0.0 0.00 0.00 0.00 78 1011.7
20260507084556 1 0.0 0.0 0.00 0.00 0.00 78 1011.7
20260507083045 1 0.0 0.0 0.00 0.00 0.00 77 1011.7
20260507081542 2 0.0 0.0 0.00 0.00 0.00 77 1011.7
20260507080040 2 0.0 0.0 0.00 0.00 0.00 76 1011.7
20260507074537 2 0.0 0.0 0.00 0.00 0.00 74 1011.7
20260507073035 3 0.0 0.0 0.00 0.00 0.00 71 1011.8
20260507071537 3 0.0 0.0 0.00 0.00 0.00 69 1012.0
20260507070030 3 0.0 0.0 0.00 0.00 0.00 68 1012.1
20260507064527 3 0.0 0.0 0.00 0.00 0.00 66 1012.2
20260507063027 3 0.0 0.0 0.00 0.00 0.00 66 1012.3
20260507061528 4 0.0 0.0 0.00 0.00 0.00 65 1012.4
20260507060034 5 0.0 0.0 0.00 0.00 0.00 62 1012.5
20260507054527 5 0.0 0.0 0.00 0.00 0.00 62 1012.5
20260507053017 5 0.0 0.0 0.00 0.00 0.00 61 1012.6
20260507051517 5 0.0 0.0 0.00 0.00 0.00 62 1012.6
20260507050035 5 0.0 0.0 0.00 0.00 0.00 61 1012.7
20260507044520 5 0.0 0.0 0.00 0.00 0.00 61 1012.8
20260507043012 5 0.0 0.0 0.00 0.00 0.00 62 1012.8
20260507041512 5 0.0 0.0 0.00 0.00 0.00 62 1012.9
20260507040014 5 0.0 0.0 0.00 0.00 0.00 61 1013.1
20260507034512 5 0.0 0.0 0.00 0.00 0.00 60 1013.1
20260507033015 5 0.0 0.0 0.00 0.00 0.00 61 1013.2
20260507031509 5 0.0 0.0 0.00 0.00 0.00 60 1013.2
20260507030010 5 0.0 0.0 0.00 0.00 0.00 60 1013.3
20260507024512 5 0.0 0.0 0.00 0.00 0.00 60 1013.3
20260507023008 5 0.0 0.0 0.00 0.00 0.00 59 1013.3
20260507021517 5 0.0 0.0 0.00 0.00 0.00 57 1013.4
20260507020010 5 0.0 0.0 0.00 0.00 0.00 57 1013.3
20260507014506 6 0.0 0.0 0.00 0.00 0.00 56 1013.2
20260507013008 6 0.0 0.0 0.00 0.00 0.00 54 1013.3
20260507011514 6 0.0 0.0 0.00 0.00 0.00 49 1013.3
20260507010008 7 0.0 0.0 0.00 0.00 0.00 49 1013.3
20260507004504 7 0.0 0.0 0.00 0.00 0.00 47 1013.4
20260507003004 7 0.0 0.0 0.00 0.00 0.00 48 1013.3
20260507001502 8 0.0 0.0 0.00 0.00 0.00 47 1013.5
20260507000003 7 0.0 0.0 0.00 0.00 0.00 48 1013.4
20260506234502 7 0.0 0.0 0.00 0.00 0.00 47 1013.5
20260506233002 8 0.0 0.0 0.00 0.00 0.00 47 1013.6
20260506231501 8 0.0 0.0 0.00 0.00 0.00 48 1013.6
20260506230000 8 0.0 0.0 0.00 0.00 0.00 46 1013.6
20260506224600 8 0.0 0.0 0.00 0.00 0.00 46 1013.6
20260506223102 8 0.0 0.0 0.00 0.00 0.00 45 1013.6
20260506221559 8 0.0 0.0 0.00 0.00 0.00 47 1013.6
20260506221505 8 0.0 0.0 0.00 0.00 0.00 47 1013.7
20260506220058 8 0.0 0.0 0.00 0.00 0.00 47 1013.7
20260506214556 8 0.0 0.0 0.00 0.00 0.00 47 1013.9
20260506213055 8 0.0 0.0 0.00 0.00 0.00 49 1014.0
20260506211557 8 0.0 0.0 0.00 0.00 0.00 48 1014.1
20260506210054 8 0.0 0.0 0.00 0.00 0.00 49 1014.2
20260506204557 7 0.0 0.0 0.00 0.00 0.00 50 1014.4
20260506203052 8 0.0 0.0 0.00 0.00 0.00 49 1014.4
20260506201548 7 0.0 0.0 0.00 0.00 0.00 54 1014.5
20260506200105 7 0.0 0.0 0.00 0.00 0.00 53 1014.5
20260506194549 7 0.0 0.0 0.00 0.00 0.00 51 1014.6
20260506193043 7 0.0 0.0 0.00 0.00 0.00 51 1014.6
20260506191543 6 0.0 0.0 0.00 0.00 0.00 53 1014.7
20260506190042 7 0.0 0.0 0.00 0.00 0.00 52 1014.7
20260506184542 7 0.0 0.0 0.00 0.00 0.00 52 1014.7
20260506183054 6 0.0 0.0 0.00 0.00 0.00 53 1014.7
20260506181544 6 0.0 0.0 0.00 0.00 0.00 52 1014.8
20260506180040 6 0.0 0.0 0.00 0.00 0.00 53 1014.8
20260506174538 6 0.0 0.0 0.00 0.00 0.00 50 1014.8
20260506173034 6 0.0 0.0 0.00 0.00 0.00 52 1015.0
20260506171541 6 0.0 0.0 0.00 0.00 0.00 53 1015.2
20260506170035 6 0.0 0.0 0.00 0.00 0.00 53 1015.1
20260506164530 5 0.0 0.0 0.00 0.00 0.00 56 1015.3
20260506163031 5 0.0 0.0 0.00 0.00 0.00 55 1015.2
20260506161537 5 0.0 0.0 0.00 0.00 0.00 54 1015.1